Regional Weather Roundup
Issued by NWS New Orleans/Baton Rouge, LA

Home | Current Version | Previous Version | Text Only | Print | Product List | Glossary Off
Versions: 1 2 3 4 5 6 7 8 9 10 11 12 13 14 15 16 17 18 19 20 21 22 23 24 25 26 27 28 29 30 31 32 33 34 35 36 37 38 39 40 41 42 43 44 45 46 47 48 49 50

135
ASUS44 KLIX 201510
RWRLIX
NEW ORLEANS REGIONAL WEATHER ROUNDUP
NATIONAL WEATHER SERVICE NEW ORLEANS LA
900 AM CST THU NOV 20 2014

NOTE: "FAIR" INDICATES FEW OR NO CLOUDS BELOW 12,000 FEET WITH NO
      SIGNIFICANT WEATHER AND/OR OBSTRUCTIONS TO VISIBILITY.
      SKY/WX - SKY CONDITION AND SIGNIFICANT WEATHER.
      TMP - AIR TEMPERATURE.     DP    - DEWPOINT TEMPERATURE.
      RH  - RELATIVE HUMIDITY.   PRES  - PRESSURE.
      HI  - HEAT INDEX.          WCI   - WIND CHILL INDEX.

*  THESE STATIONS ARE NOT NWS OR FAA STATIONS AND ARE NOT UNDER
   NWS QUALITY CONTROL.

LAZ038-040-048-061>063-065>067-069-201600-
SOUTHEAST LOUISIANA

CITY           SKY/WX    TMP DP  RH WIND       PRES   REMARKS
N.O. AUDUBON     N/A     60  50  69 MISG        N/A
N.O. INTL ARPT PTSUNNY   58  48  69 S6        30.31R
N.O. LAKEFRONT PTSUNNY   60  49  66 S7        30.32R
N.O. DOWNTOWN* PTSUNNY   59  46  63 S6        30.32R
SLIDELL        PTSUNNY   55  47  74 S5        30.31R
BATON ROUGE    MOSUNNY   56  46  69 SE6       30.29R
BOOTHVILLE     SUNNY     62  50  64 CALM      30.33R
BELLE CHASSE   PTSUNNY   60  49  66 SE3       30.31R
BOGALUSA*        N/A     52  43  73 CALM      30.32S
NEW ROADS*       N/A     55  46  73 SE5       30.28S
GONZALES*        N/A     58  49  72 S5        30.29S
HAMMOND*       SUNNY     57  48  72 S3        30.31S
HOUMA*         SUNNY     61  52  72 SE5       30.30R
PORT FOURCHON* SUNNY     64  48  55 SE6       30.35R

$$

MSZ070-080>082-201600-
SOUTHERN MISSISSIPPI

CITY           SKY/WX    TMP DP  RH WIND       PRES   REMARKS
MCCOMB         SUNNY     55  46  71 S5        30.29R
GULFPORT       SUNNY     54  47  77 CALM      30.32R
BILOXI         MOSUNNY   53  46  77 VRB1      30.32R
PASCAGOULA     PTSUNNY   51  44  77 CALM      30.33R
STENNIS ARPT*  MOSUNNY   54  45  71 CALM      30.32S

$$

COASTAL OBSERVATIONS
LAKE AND NEARSHORE STATIONS

STATION/POSITION TIME  TEMP    WIND        PRES    WAVE
                       AIR SEA DIR/SP/G            HT/PER
                 (UTC) (F)     (DEG/KT/KT) (MB)    (FT/S)
PASCAGOULA       1500   57        CALM     1026.3
WAVELAND YACHT   1500   52     150/  5/  5 1025.7
GRAND ISLE       1500   64 56  130/  1/  3 1026.9
SOUTHWEST PASS   1500   60 72              1027.1
NEW CANAL        1500   59 52  170/  4/  6 1026.6
SHELL BEACH      1500   59 47  150/  4/  6 1026.4

OFFSHORE STATIONS

STATION/POSITION TIME  TEMP    WIND        PRES    WAVE
                       AIR SEA DIR/SP/G            HT/PER
                 (UTC) (F)     (DEG/KT/KT) (MB)    (FT/S)
64 S DAUPHIN ISL 1428   63 73   80/  4/  8 1027.6    1/ 6

$$




USA.gov is the U.S. government's official web portal to all federal, state and local government web resources and services.